User: anonymous   Login
Location: Unspecified
(0.0000°N, 0.0000°E)
Time: 15:25:22
(UTC+00:00)
Language:

USA 227 - Orbit

View from above orbital plane
View from above orbital plane
View from above satellite
View from above satellite

Ground track
Ground track

The orbit data is extracted from the following two-line orbital elements,

1 37377U 11011A   18039.01611861 0.00000000  00000-0  00000-0 0    09
2 37377   4.5794   2.8439 0006710 189.6817 170.3084  1.00270000    01
Epoch (UTC): 08 February 2018 00:23:12
Eccentricity: 0.0006710
inclination: 4.5794°
perigee height: 35758 km
apogee height: 35815 km
right ascension of ascending node: 2.8439°
argument of perigee: 189.6817°
revolutions per day: 1.00270000
mean anomaly at epoch: 170.3084°
orbit number at epoch: 0

The dashed part of the orbit path shows where the satellite is in the earth's shadow,  

DLR